Regional Weather Roundup
Issued by NWS Grand Forks, ND

Home | Current Version | Previous Version | Text Only | Print | Product List | Glossary On
Versions: 1 2 3 4 5 6 7 8 9 10 11 12 13 14 15 16 17 18 19 20 21 22 23 24 25 26 27 28 29 30 31 32 33 34 35 36 37 38 39 40 41 42 43 44 45 46 47 48 49 50
000
ASUS43 KFGF 191731
RWRFGF
PRAIRIE TO PINES  WEATHER ROUNDUP
NATIONAL WEATHER SERVICE EASTERN NORTH DAKOTA/GRAND FORKS ND
1200 PM CDT SUN APR 19 2015

 **SATELLITE DATA USED TO AUGMENT SKY COVER AT AUTOMATED STATIONS**
 *****  WEATHER ACROSS EASTERN NORTH DAKOTA  *****

CITY           SKY/WX    TMP DP  RH WIND       PRES   REMARKS
GRAND FORKS    LGT RAIN  45  43  93 NW18G28   29.69F
GRAND FRKS AFB LGT RAIN  45  41  87 NW16      29.70S
GRAND FRKS NWS   N/A     43 N/A N/A NW12        N/A
DEVILS LAKE    CLOUDY    41  36  81 NW28G33   29.77R
FARGO          CLOUDY    47  40  76 NW25G33   29.71R
WAHPETON ARPT  CLOUDY    46  37  71 NW18      29.74R
$$

 ***** WEATHER ACROSS CENTRAL AND WESTERN NORTH DAKOTA  *****

CITY           SKY/WX    TMP DP  RH WIND       PRES   REMARKS
BISMARCK       CLOUDY    47  36  65 NW28G38   29.90S
MINOT          LGT RAIN  41  37  86 NW21G32   29.87S FOG
JAMESTOWN      CLOUDY    47  37  68 NW25G36   29.76S
MINOT AFB      LGT RAIN  43  41  93 NW23G29   29.87R
GARRISON         N/A     45  37  73 NW29G37   29.89S
WILLISTON      CLOUDY    46  32  58 NW25G33   30.03S
DICKINSON      CLOUDY    42  33  70 NW24G33   29.96F
HETTINGER      CLOUDY    42  31  64 NW29G39   30.00S
$$

 *****  OTHER AIRPORT OBSERVATIONS IN OUR AREA  *****

CITY           SKY/WX    TMP DP  RH WIND       PRES   REMARKS
WALHALLA       RAIN      39  39 100 NW21G29   29.75R
GRAFTON AIRPOR LGT RAIN  45  45 100 NW26G35   29.70F
VALLEY CITY AR LGT RAIN  45  45 100 NW18G33   29.75S
CANDO          LGT RAIN  39  39 100 NW20      29.79F
CAVALIER APRT  LGT RAIN  41  37  87 N23G32    29.72S
GWINNER        CLOUDY    48  39  71 NW22G29   29.78S
SHEYENNE NWR     N/A     47  37  69 NW18      29.95S
ROLLA          LGT RAIN  39  39 100 NW24G31   29.79F
 ***** THE ABOVE OBSERVATIONS ARE NON NWS ARE NOT QUALITY
       CONTROLLED AND MAY MIS-REPORT RAIN FOR SNOW...
$$

  *****  WEATHER ACROSS NORTHERN MINNESOTA  *****

CITY           SKY/WX    TMP DP  RH WIND       PRES   REMARKS
FLAG ISLAND    CLOUDY    41  37  87 SE5       29.62F
WARROAD        CLOUDY    41  37  87 CALM      29.62F
ROSEAU         LGT RAIN  45  39  81 CALM      29.62F
HALLOCK        LGT RAIN  43  41  93 NW26      29.66F
THF RVR FALLS  CLOUDY    45  43  93 NW18      29.65S
BAUDETTE       CLOUDY    43  40  89 SE7       29.61F
WASKISH        CLOUDY    45  41  87 CALM      29.62F
CROOKSTON      LGT RAIN  45  45 100 NW21G28   29.68S
STEPHEN NDAWN    N/A     46  45  93 NW18        N/A
GREENBUSH NDAW   N/A     45  43  93 NW16        N/A
$$
  *****  WEATHER ACROSS CENTRAL AND WEST MINNESOTA  *****

CITY           SKY/WX    TMP DP  RH WIND       PRES   REMARKS
FOSSTON        DRIZZLE   45  43  93 NW16G22   29.64F
BEMIDJI        CLOUDY    44  41  91 SW5       29.62F
PARK RAPIDS    CLOUDY    50  43  77 NW12      29.62F
ELBOW LAKE     CLOUDY    44  42  92 NW30      29.71R
WADENA         CLOUDY    46  45  93 W12       29.64F
DETROIT LAKES  CLOUDY    43  43 100 NW17G28   29.67S
MOORHEAD       CLOUDY    45  39  81 NW25G36   29.71S
FERGUS FALLS   CLOUDY    43  43 100 NW24G30   29.72R FOG
MORRIS MN      CLOUDY    46  43  87 NW28G33   29.71R
STAPLES        CLOUDY    46  46 100 NW12      29.63F
$$
  *****  WEATHER ELSEWHERE ACROSS MINNESOTA  *****

CITY           SKY/WX    TMP DP  RH WIND       PRES   REMARKS
DULUTH         LGT RAIN  39  37  92 SE14      29.66S VSB 1/2
INTRNTL FALLS  CLOUDY    41  39  93 SE8       29.63F FOG
ELY            LGT RAIN  39  37  93 SE7       29.66F
CLOQUET        LGT RAIN  39  39 100 SE8       29.64F VSB 3/4
WHEATON        CLOUDY    46  39  76 NW22G29   29.75S
BRAINERD       LGT RAIN  48  48 100 SW6       29.61S VSB 1
HIBBING        CLOUDY    42  40  92 S6        29.63F FOG
ALEXANDRIA     CLOUDY    47  45  93 W15       29.68R
SAINT CLOUD    CLOUDY    53  49  86 W13       29.63R
MINNEAPOLIS    CLOUDY    57  52  83 VRB5      29.65F
$$

  *****  WEATHER ACROSS SOUTH DAKOTA  *****

CITY           SKY/WX    TMP DP  RH WIND       PRES   REMARKS
SIOUX FALLS    CLOUDY    51  43  74 NW24      29.78R
BROOKINGS      CLOUDY    48  41  76 NW25      29.78S
WATERTOWN      CLOUDY    48  40  73 NW26      29.77S
HURON          CLOUDY    53  34  48 N25G37    29.84S
SISSETON         N/A     50  42  74 N26G37    29.75R
ABERDEEN       PTSUNNY   52  34  50 NW25G32   29.83S
MITCHELL       CLOUDY    52  35  52 N30G36    29.85S
PIERRE         SUNNY     51  32  48 NW28G39   29.92F
MOBRIDGE       PTSUNNY   49  36  61 NW29G37   29.88S
RAPID CITY     SUNNY     48  25  40 NW39G49   30.03F
$$

  *****  SOME WEATHER IN NEARBY STATES *****

CITY           SKY/WX    TMP DP  RH WIND       PRES   REMARKS
GLASGOW MT     MOSUNNY   48  25  40 NW28G33   30.16S
GREAT FALLS MT CLOUDY    46  23  40 CALM      30.22F
CHEYENNE WY    MOSUNNY   34  24  67 N15       30.13R WCI  24
SCOTTSBLUFF NE PTSUNNY   48  24  39 N28G36    30.10F
OMAHA NE       LGT RAIN  53  50  89 N17G24    29.74R
DES MOINES IA  CLOUDY    65  57  75 NE5       29.62F
DAVENPORT IA   MOSUNNY   69  45  41 SE6       29.65F
CHICAGO IL     PTSUNNY   67  38  34 E12       29.71F
EAU CLAIRE WI  LGT RAIN  53  41  63 S9        29.69F
LA CROSSE WI   CLOUDY    56  44  64 S3        29.70F
$$

  *****  SOME NATIONAL WEATHER *****

CITY           SKY/WX    TMP DP  RH WIND       PRES   REMARKS
LA GUARDIA NY  PTSUNNY   58  30  34 NE9       30.25S
RALEIGH NC     CLOUDY    72  62  71 E9G21     29.98F
ATLANTA GA     LGT RAIN  68  64  88 S9        29.81F FOG
NEW ORLEANS LA MOSUNNY   83  59  44 W17G24    29.83R
OKLAHOMA CITY  PTSUNNY   66  49  54 NE7       29.76S
ALBUQUERQUE NM MOSUNNY   56  28  34 CALM      30.09R
SALT LAKE CITY MOSUNNY   59  32  36 W5        30.08S
LOS ANGELES CA MOSUNNY   61  55  81 W7        29.97F
BOISE ID         N/A    N/A N/A N/A MISG      30.14F
SEATTLE WA     PTSUNNY   56  42  59 N15       30.19F
$$

*** WEATHER ACROSS MANITOBA...SASKATCHEWAN AND ONTARIO ***
                ***ONTARIO***

CITY           SKY/WX    TMP DP  RH WIND       PRES   REMARKS
GERALDTON      CLOUDY    43  25  49 E12G20    29.96F
THUNDER BAY    LGT RAIN  36  34  93 E20G25    29.84F
SIOUX LOOKOUT  LGT SNOW  34  34 100 E8        29.69F
TORONTO        PTSUNNY   48  30  49 E15G23    30.15F
BIG TROUT LK   MOSUNNY   45  25  45 SE14G26   29.88F
PICKLE LAKE    FLURRIES  36  30  80 SE20      29.84F
DRYDEN         CLOUDY    39  37  93 E8G17     29.65F
KENORA         CLOUDY    43  37  81 SE12      29.64F
$$
                *** MANITOBA***

CITY           SKY/WX    TMP DP  RH WIND       PRES   REMARKS
BRANDON        LGT RAIN  43  34  70 N25       29.82F
DAUPHIN        CLOUDY    39  32  75 N20G29    29.86R
ISLAND LAKE    CLOUDY    37  36  93 NE6       29.73F
PILOT MOUND      N/A     37  36  93 NW13        N/A
THE PAS        CLOUDY    32  27  80 N22G30    30.00S WCI  19
THOMPSON       LGT SNOW  25  21  86 N21G30    30.01F WCI  10
WINNIPEG       LGT RAIN  41  39  93 NW23      29.72R
LYNN LAKE      CLOUDY    27  23  86 N15G22    30.18S WCI  15
CHURCHILL      MOSUNNY   21  18  86 NE8       30.30F WCI  12
GILLAM         SNOW      23  21  93 NE16G24   30.04F VSB 1/2 WCI  10
$$
                ***SASKATCHEWAN***

CITY           SKY/WX    TMP DP  RH WIND       PRES   REMARKS
ESTEVAN        LGT RAIN  41  32  70 NW22G36   29.98S
KINDERSLEY     MOSUNNY   46  27  46 NW10G20   30.20F
LLOYDMINSTER   MOSUNNY   48  28  46 NW6       30.21F
PRINCE ALBERT  MOSUNNY   43  30  61 N15G22    30.14F
REGINA         PTSUNNY   39  32  75 N20G28    30.09R
YORKTON        CLOUDY    39  32  75 NW24G37   29.95S
N. BATTLEFORD  SUNNY     46  30  53 NW10      30.21F
LA RONGE       MOSUNNY   37  27  65 N6        30.20F
SASKATOON      MOSUNNY   46  21  36 N20G28    30.16F
SWIFT CURRENT  MOSUNNY   45  27  49 N20       30.17F
$$
NOTE: THESE ARE AUTOMATED STATIONS WITH LIMITED QUALITY CONTROL
      "FAIR" INDICATES FEW OR NO CLOUDS BELOW 12,000 FEET WITH NO
      SIGNIFICANT WEATHER AND/OR OBSTRUCTIONS TO VISIBILITY.
      SKY/WX - SKY CONDITION AND SIGNIFICANT WEATHER.
      TMP - AIR TEMPERATURE.    DP   - DEWPOINT TEMPERATURE.
      RH  - RELATIVE HUMIDITY.  PRES - PRESSURE.
      HX  - HEAT INDEX.         WCI  - WIND CHILL INDEX.
$


USA.gov is the U.S. government's official web portal to all federal, state and local government web resources and services.